{"data":{"norad_id":63462,"intl_designator":"2025-070C","name":"STARLINK-33691","alt_names":[],"object_type":"PAYLOAD","status":"ACTIVE","operator":null,"country":"US","launch_date":"2025-04-06","launch_site_code":"AFETR","launch_vehicle":null,"mission":null,"orbit_class":"UNKNOWN","rcs_meters":null,"size_class":null,"mass_kg":null,"dimensions":null,"purposes":["comms"],"wikipedia_slug":null,"has_3d_model":false,"image_url":null,"decayed_at":null,"tle_current":{"epoch":"2026-05-25T03:32:00.746304Z","epoch_age_seconds":52577,"freshness":"FRESH","line1":"1 63462U 25070C   26145.14723086  .00014018  00000+0  51766-3 0  9995","line2":"2 63462  42.9947 187.6622 0000408 128.6873 231.4015 15.27599226 64629","mean_motion":15.27599226,"eccentricity":4.08e-5,"inclination_deg":42.9947,"raan_deg":187.6622,"arg_perigee_deg":128.6873,"mean_anomaly_deg":231.4015,"bstar":0.00051766,"rev_number":6462,"period_min":94.265562294806,"perigee_km":482.71159303903,"apogee_km":483.27146112684,"semimajor_km":6861.1285270829,"source":"CELESTRAK","updated_at":"2026-05-25T13:38:20.004505Z"}}}